Карточка аэропорта UMKK

Внимание!
Информация на этой странице в стадии наполнения.
Если вы не увидели какой-то информации, или заметили неточность - пожалуйста сообщите нам!
Спасибо!
Команда RU-STAFF
Название аэропортаХраброво
Название аэропорта (англ.)Khrabrovo
Превышение43 ft. (13.1 m.)
Координаты54°53.4', 20°35.55'
Высота перехода4000ft
Эшелон переходаFL50 (QNH>=1013hPa); FL60 (QNH<1013hPa); FL50 (QNH<977hPa);
Коды ответчика6620-6637
Зона ОрВДКалининград РПИ (UMKK)
Данные METARUMKK 191200Z 31007MPS 9999 SCT026 21/15 Q1021 R24/95D NOSIG RMK QFE764/1019
Проноз погоды (TAF)UMKK 191056Z 1912/2012 29006G12MPS 9999 SCT020 BECMG 1918/1920 VRB01MPS TEMPO 1922/2005 0300 PRFG BKN002 BECMG 2009/2011 34003G08MPS
NOTAMshow/hide NOTAM
AWOS   TABLE

Информация о ВПП

ВПП Длина ВПП (м.) Покрытие Курс ВПП Частота ILS
063350Асфальтобетон60110.3
243350Асфальтобетон240109.5

Диспетчерские позиции

Позывной Наименование органа УВД Частота
UMKK_TWRКалининград-Вышка127.2
UMKK_APPКалининград-Подход126.0



Спутниковое изображение